Temp
52 46 39 43 45 48 45 41 41 46 49 43 44 46 50 51 47 48 49 49 49 50 52 53 53 50 48 51 50 49 48 47 47 44 42 43 45 46 50 51 53 55 63 63
47 39 46 49 49 46 45 40 39 44 48 43 43 43 49 51 48 45 46 48 49 51 49 53 51 49 48 48 48 48 47 47 47 45 44 42 44 47 49 49 50 52 56 59
41 43 49 47 45 44 41 37 35 36 43 45 41 38 45 49 49 51 50 48 50 47 46 46 47 44 47 45 44 47 46 46 46 46 45 44 47 48 47 46 47 49 54 56
42 46 45 42 44 43 38 43 41 40 34 30 40 26 42 45 47 49 49 48 43 44 47 49 47 43 44 44 45 46 46 46 47 46 43 42 42 42 44 45 46 48 52 53
38 40 39 40 41 43 39 42 40 38 33 31 33 27 40 45 44 46 47 47 46 44 45 46 46 48 44 45 43 44 45 46 47 45 43 41 41 43 45 46 46 47 50 53
39 45 42 40 44 43 44 40 39 36 33 21 30 29 36 40 43 45 48 48 49 45 44 46 49 48 45 44 43 43 44 46 46 44 42 41 43 44 44 44 45 45 47 50
37 38 41 43 37 42 39 32 22 23 21 22 33 26 37 44 47 45 44 44 44 45 45 46 44 45 44 41 42 43 43 43 45 42 42 43 44 45 45 44 44 45 45 47
32 31 36 42 37 34 35 32 24 19 21 24 31 28 40 47 49 47 47 45 46 46 48 45 45 45 43 42 42 42 42 42 43 43 41 43 44 44 45 46 46 46 45 46
30 32 38 40 41 39 34 30 34 24 18 20 30 39 45 44 44 46 46 46 45 45 46 43 46 44 43 41 41 41 42 42 43 42 42 43 44 43 44 45 47 48 47 48
33 30 32 37 40 39 34 39 28 26 18 18 26 30 32 37 43 47 45 44 44 45 44 45 45 44 42 41 41 41 42 41 41 42 42 43 43 43 44 46 45 47 47 49
33 34 31 32 30 33 32 29 32 32 28 20 18 28 41 41 44 44 43 45 43 43 44 44 44 43 42 41 40 40 40 40 40 41 42 42 42 42 44 44 45 45 46 48
38 34 30 31 32 38 36 35 36 26 23 24 24 26 42 42 43 44 44 46 43 41 43 43 43 42 40 40 40 39 39 39 40 41 42 41 41 42 42 42 43 44 45 47
38 32 28 31 31 32 29 35 37 33 30 24 21 29 42 42 38 42 42 42 42 41 41 42 41 40 40 39 39 38 39 38 40 41 40 41 40 40 39 40 41 42 43 45
43 29 30 30 33 32 26 29 34 31 23 27 28 30 39 36 34 36 36 34 33 34 37 37 38 39 39 38 38 39 38 39 39 39 40 39 39 39 39 39 40 40 42 42
40 27 26 28 33 33 32 29 30 27 31 31 31 28 39 33 34 37 38 38 34 29 29 30 28 31 29 34 35 37 37 36 39 38 38 38 40 40 39 38 38 39 39 40
40 30 26 24 27 29 26 31 30 32 29 30 32 33 46 48 40 33 33 33 34 34 32 31 30 31 31 29 33 36 29 34 37 37 38 38 38 39 37 38 37 38 38 39
34 32 29 30 24 22 26 28 32 30 32 33 29 40 41 39 42 39 39 38 36 40 42 37 35 32 31 31 34 34 35 36 36 34 35 34 33 32 36 36 37 36 36 37
34 33 31 25 25 21 37 37 36 34 34 37 37 39 41 43 43 43 44 44 43 44 45 44 41 38 34 33 31 35 36 35 35 36 36 36 34 31 31 33 36 37 37 36
37 35 30 28 24 33 40 33 34 34 40 41 39 43 43 42 42 45 47 47 47 47 46 44 43 41 36 35 33 34 34 34 34 34 33 33 33 32 33 32 32 32 32 34
34 35 31 26 24 21 39 36 40 39 34 44 44 43 42 42 36 42 46 46 47 48 45 44 41 39 37 35 34 33 33 33 32 33 34 33 32 32 32 32 31 32 31 32
25 26 25 27 28 31 42 39 40 32 42 43 43 44 42 39 44 45 42 44 44 43 42 41 40 38 37 35 33 33 32 32 34 33 32 32 32 32 32 31 31 31 31 31
26 25 24 28 26 25 40 37 39 46 41 43 41 42 43 44 41 41 42 41 41 40 39 38 37 36 35 33 33 32 32 32 29 28 27 25 25 30 30 25 26 26 26 26
29 34 28 32 33 40 42 43 44 42 45 43 43 41 43 43 43 43 44 43 42 39 37 36 35 31 27 27 30 30 29 28 24 23 22 22 23 25 26 24 23 24 24 24
31 36 29 31 37 39 39 43 43 42 43 44 43 44 43 43 44 45 45 44 41 37 33 30 29 28 29 26 28 27 26 27 27 25 22 22 22 22 21 26 27 24 22 22
31 35 28 28 36 38 40 42 46 46 43 43 43 45 44 44 44 44 43 40 39 37 30 30 32 31 31 27 27 24 24 26 25 26 25 25 26 25 24 25 25 27 26 27
31 31 33 33 41 46 49 46 44 42 43 43 41 40 39 41 41 40 39 38 37 33 28 29 31 29 29 29 29 27 27 27 27 26 26 28 27 26 26 25 23 33 34 36
MSLP
1018.07 1018.54 1019.61 1019.81 1019.70 1019.46 1019.21 1019.01 1019.20 1018.90 1019.16 1019.47 1018.48 1017.61 1016.74 1016.28 1016.58 1016.74 1016.86 1016.82 1016.97 1017.07 1017.51 1018.08 1018.60 1019.03 1019.45 1019.48 1019.53 1019.70 1019.72 1019.64 1019.41 1019.10 1018.85 1018.61 1018.26 1017.79 1017.37 1017.03 1016.04 1015.14 1013.97 1014.36
1019.11 1020.02 1020.81 1020.78 1020.48 1020.38 1020.16 1019.73 1019.98 1019.83 1019.75 1020.00 1018.82 1017.70 1016.76 1016.16 1016.20 1016.46 1016.72 1016.97 1017.03 1017.21 1017.32 1017.74 1018.26 1018.74 1019.19 1019.49 1019.63 1019.66 1019.78 1019.82 1019.64 1019.31 1018.92 1018.93 1018.58 1017.95 1017.38 1017.32 1016.83 1015.80 1014.28 1014.77
1020.12 1021.41 1021.41 1021.34 1021.13 1021.13 1021.06 1021.11 1021.17 1021.52 1020.63 1019.62 1019.46 1017.60 1016.26 1015.95 1016.09 1016.26 1016.47 1016.75 1016.85 1016.93 1017.23 1017.70 1018.28 1018.71 1019.07 1019.48 1019.69 1019.70 1019.80 1019.87 1019.71 1019.49 1019.16 1018.81 1018.45 1018.08 1017.71 1017.48 1017.30 1016.82 1015.85 1015.54
1021.44 1022.06 1021.95 1021.91 1021.84 1022.07 1022.18 1022.50 1022.27 1021.99 1021.79 1021.11 1020.11 1018.62 1016.42 1015.88 1015.75 1015.87 1016.02 1016.37 1016.63 1016.81 1017.08 1017.52 1018.11 1018.74 1019.26 1019.67 1019.84 1019.84 1019.80 1019.80 1019.67 1019.53 1019.34 1019.07 1019.12 1019.05 1019.24 1018.66 1018.17 1017.77 1016.92 1016.43
1022.39 1022.59 1022.61 1022.54 1022.86 1022.83 1023.00 1023.18 1023.18 1022.75 1022.56 1022.15 1020.63 1019.98 1016.22 1015.70 1015.47 1015.55 1015.68 1016.08 1016.38 1016.71 1017.18 1017.67 1018.19 1018.83 1019.33 1019.76 1020.10 1019.99 1019.89 1019.71 1019.86 1019.68 1019.50 1019.40 1019.19 1019.06 1018.97 1018.43 1018.58 1018.38 1017.85 1017.07
1022.82 1023.32 1023.41 1023.54 1023.44 1023.41 1023.43 1023.46 1023.63 1023.28 1023.19 1023.04 1021.41 1020.73 1016.59 1015.40 1015.07 1015.18 1015.38 1015.72 1016.11 1016.55 1017.15 1017.56 1018.14 1018.93 1019.39 1019.78 1020.17 1020.21 1020.08 1019.93 1019.96 1019.95 1019.88 1019.70 1019.50 1018.98 1018.36 1018.95 1019.04 1018.73 1018.34 1017.86
1023.16 1023.62 1024.01 1024.12 1023.91 1023.85 1023.77 1023.98 1024.16 1024.32 1024.02 1023.18 1021.82 1020.78 1016.48 1015.03 1014.76 1014.98 1015.24 1015.58 1016.02 1016.47 1017.04 1017.48 1018.08 1018.87 1019.50 1019.92 1020.30 1020.31 1020.25 1020.15 1020.09 1020.15 1020.12 1019.96 1019.58 1019.42 1018.98 1018.90 1018.96 1018.99 1018.97 1018.50
1023.47 1024.07 1024.42 1024.65 1024.60 1024.48 1024.33 1024.63 1025.01 1025.47 1025.38 1024.05 1022.06 1019.75 1016.12 1015.07 1014.91 1015.17 1015.27 1015.60 1016.04 1016.52 1016.99 1017.47 1018.15 1018.90 1019.48 1019.96 1020.37 1020.37 1020.34 1020.33 1020.32 1020.39 1020.33 1020.23 1020.01 1019.53 1019.17 1019.13 1019.06 1019.20 1019.19 1018.75
1023.62 1024.49 1024.91 1025.08 1025.08 1025.18 1024.90 1025.00 1025.17 1025.46 1026.07 1024.85 1021.40 1018.28 1015.93 1015.29 1015.15 1015.41 1015.53 1015.68 1016.10 1016.60 1017.17 1017.65 1018.31 1018.95 1019.57 1020.00 1020.45 1020.63 1020.49 1020.51 1020.50 1020.56 1020.50 1020.20 1020.01 1019.87 1019.71 1019.63 1019.30 1019.26 1019.22 1018.91
1023.62 1024.63 1025.30 1025.42 1025.52 1025.53 1025.28 1025.28 1025.39 1025.71 1026.02 1025.09 1021.83 1019.32 1016.92 1015.83 1015.46 1015.62 1015.86 1016.15 1016.37 1016.75 1017.40 1017.86 1018.40 1019.03 1019.74 1020.16 1020.51 1020.66 1020.49 1020.70 1020.70 1020.65 1020.67 1020.52 1020.35 1020.25 1020.06 1019.69 1019.83 1019.80 1019.49 1019.14
1023.62 1024.47 1025.88 1025.77 1025.54 1025.35 1025.69 1025.48 1025.54 1025.65 1025.83 1025.55 1023.69 1019.79 1017.25 1016.27 1015.79 1015.93 1016.26 1016.79 1017.19 1017.43 1017.87 1018.32 1018.69 1019.27 1019.89 1020.29 1020.51 1020.90 1020.75 1020.81 1020.84 1020.86 1020.83 1020.77 1020.75 1020.47 1020.21 1020.24 1020.18 1019.96 1019.65 1019.15
1023.61 1024.16 1025.13 1025.40 1025.49 1025.54 1025.34 1025.15 1025.11 1025.67 1026.12 1025.84 1024.32 1020.11 1017.51 1017.13 1016.79 1016.79 1016.96 1017.34 1017.90 1018.16 1018.33 1018.79 1019.15 1019.52 1020.04 1020.43 1020.74 1020.85 1021.13 1020.93 1020.79 1020.65 1020.70 1020.91 1020.89 1020.94 1021.12 1020.90 1020.64 1020.34 1019.88 1019.48
1023.48 1024.38 1024.90 1025.47 1026.05 1025.90 1025.52 1025.10 1025.05 1025.40 1025.62 1025.23 1024.33 1019.85 1017.53 1017.24 1017.10 1017.40 1017.76 1018.12 1018.62 1018.87 1018.91 1019.20 1019.52 1019.86 1020.11 1020.48 1020.84 1021.09 1021.27 1021.55 1021.39 1021.13 1021.03 1021.05 1021.21 1021.31 1021.28 1021.07 1020.95 1020.75 1020.35 1019.94
1023.38 1024.38 1024.78 1024.70 1024.40 1024.33 1025.21 1024.92 1025.00 1025.15 1025.43 1024.35 1022.38 1019.72 1017.86 1017.52 1017.57 1017.59 1017.99 1018.25 1018.95 1019.40 1019.51 1019.65 1019.91 1020.29 1020.54 1020.68 1020.96 1021.16 1021.31 1021.53 1021.58 1021.45 1021.31 1021.33 1021.39 1021.28 1021.40 1021.47 1021.24 1020.85 1020.55 1020.44
1023.70 1024.48 1024.81 1024.28 1024.08 1024.13 1024.11 1024.17 1024.54 1024.77 1023.54 1023.19 1020.99 1020.19 1017.34 1017.45 1017.74 1017.60 1017.55 1018.12 1018.83 1019.41 1019.86 1019.82 1020.26 1020.77 1020.89 1021.11 1021.30 1021.37 1021.42 1021.50 1021.49 1021.53 1021.48 1021.51 1021.54 1021.71 1021.70 1021.52 1021.24 1021.10 1020.84 1020.72
1024.07 1024.45 1025.01 1024.60 1024.20 1024.15 1023.85 1023.40 1023.56 1023.32 1023.12 1022.19 1020.96 1018.88 1017.02 1016.16 1016.88 1017.29 1017.63 1017.86 1018.29 1018.79 1019.36 1019.57 1020.23 1020.45 1020.97 1021.36 1021.56 1021.53 1021.59 1021.76 1021.64 1021.69 1021.65 1021.75 1021.92 1021.97 1022.03 1021.90 1021.73 1021.60 1021.41 1021.21
1024.19 1024.54 1025.09 1024.49 1023.98 1023.82 1022.90 1020.81 1020.99 1021.27 1020.89 1020.44 1019.78 1016.30 1015.79 1015.98 1016.26 1016.18 1016.36 1016.90 1017.37 1017.87 1018.31 1018.94 1019.46 1019.80 1020.21 1020.83 1021.28 1021.46 1021.46 1021.57 1021.74 1021.94 1022.16 1022.38 1022.30 1022.25 1022.09 1021.93 1021.98 1022.16 1022.25 1022.03
1023.58 1024.32 1024.82 1024.59 1023.74 1022.27 1018.94 1018.56 1018.70 1018.98 1018.26 1017.94 1016.84 1015.34 1015.38 1015.41 1015.42 1015.36 1015.46 1015.70 1016.26 1016.77 1017.30 1018.05 1018.58 1019.17 1019.90 1020.23 1020.65 1021.17 1021.43 1021.75 1022.01 1022.20 1022.28 1022.22 1022.35 1022.35 1022.16 1022.20 1022.22 1022.25 1022.31 1022.46
1023.72 1023.65 1024.23 1024.00 1023.01 1020.44 1017.98 1017.92 1017.86 1017.72 1015.86 1015.09 1015.27 1014.23 1014.80 1015.03 1015.31 1014.48 1014.15 1014.56 1015.00 1015.55 1016.30 1017.08 1017.77 1018.52 1019.25 1019.84 1020.26 1020.74 1021.34 1021.72 1022.01 1022.20 1022.45 1022.58 1022.57 1022.57 1022.55 1022.61 1022.64 1022.71 1022.62 1022.60
1024.26 1023.79 1023.77 1023.82 1022.57 1020.24 1017.18 1016.77 1016.82 1016.75 1015.12 1013.43 1013.84 1013.71 1014.25 1014.85 1015.12 1013.78 1013.01 1013.59 1014.55 1015.02 1015.72 1016.58 1017.45 1018.22 1019.04 1019.61 1020.10 1020.58 1021.13 1021.62 1021.96 1022.09 1022.38 1022.64 1022.86 1023.03 1023.05 1022.90 1022.94 1022.98 1023.08 1023.25
1024.43 1024.27 1023.64 1022.81 1021.24 1018.88 1016.71 1016.36 1016.69 1016.26 1014.25 1013.17 1013.22 1013.19 1013.60 1014.16 1013.92 1013.79 1013.64 1013.81 1014.53 1015.10 1015.79 1016.53 1017.36 1018.21 1018.87 1019.52 1020.00 1020.49 1020.79 1021.21 1021.44 1021.90 1022.19 1022.59 1022.96 1023.18 1023.35 1023.45 1023.48 1023.41 1023.45 1023.64
1021.56 1022.35 1022.46 1022.20 1020.81 1018.27 1015.46 1016.77 1016.07 1013.54 1013.18 1013.13 1013.06 1013.13 1013.49 1013.55 1013.68 1013.95 1014.12 1014.48 1015.17 1015.58 1016.16 1016.92 1017.72 1018.43 1018.91 1019.50 1020.10 1020.64 1020.70 1020.49 1021.09 1021.84 1022.39 1022.68 1022.83 1023.15 1023.42 1023.64 1023.72 1023.70 1023.68 1023.65
1019.41 1017.89 1018.59 1018.17 1016.70 1014.75 1014.44 1013.39 1013.31 1013.42 1013.51 1013.20 1012.95 1013.10 1013.39 1013.87 1013.95 1014.11 1014.43 1014.85 1015.39 1015.87 1016.45 1017.08 1018.03 1018.83 1018.98 1019.33 1019.76 1020.55 1020.20 1020.39 1021.01 1021.94 1022.69 1022.87 1023.10 1023.23 1023.18 1023.57 1023.94 1023.92 1023.93 1024.20
1017.51 1016.94 1016.81 1016.84 1015.02 1014.29 1013.85 1013.46 1013.42 1013.43 1013.50 1013.25 1013.20 1013.27 1013.49 1013.81 1013.92 1014.11 1014.48 1014.96 1015.40 1015.90 1016.64 1017.41 1018.19 1018.63 1018.99 1019.28 1019.68 1019.93 1020.24 1020.39 1020.92 1021.54 1022.20 1022.59 1023.10 1023.27 1023.26 1023.21 1023.33 1023.92 1024.01 1023.92
1015.80 1016.13 1016.07 1015.49 1014.36 1013.95 1013.29 1012.96 1012.80 1012.87 1012.97 1013.13 1013.27 1013.61 1013.61 1013.76 1013.98 1014.12 1014.48 1014.92 1015.21 1015.73 1016.46 1017.02 1017.62 1018.08 1018.31 1018.76 1019.38 1019.72 1019.88 1020.40 1020.92 1021.13 1021.47 1021.91 1022.23 1022.72 1023.05 1023.15 1023.22 1023.13 1023.00 1023.13
1014.55 1014.43 1014.45 1013.52 1012.62 1012.35 1012.27 1011.81 1012.09 1012.68 1012.80 1012.89 1013.51 1013.71 1013.80 1013.80 1013.98 1014.15 1014.48 1014.64 1015.01 1015.49 1016.09 1016.73 1017.07 1017.61 1017.80 1018.23 1018.59 1019.07 1019.36 1019.71 1020.35 1020.86 1021.04 1021.11 1021.50 1021.91 1022.33 1022.62 1022.63 1022.54 1022.61 1022.54
Wind_Speed
3 6 5 5 6 7 4 1 6 5 5 6 7 9 9 5 2 6 6 5 5 4 7 7 6 4 3 4 4 6 6 6 5 3 4 3 4 6 6 7 12 14 3 4
0 5 4 3 4 5 7 4 5 3 3 3 8 14 13 6 3 1 4 6 6 7 3 6 7 5 2 2 4 5 5 6 4 3 3 0 3 4 5 7 9 14 10 7
5 3 1 3 1 6 3 3 3 4 9 9 8 8 7 5 4 5 5 3 5 3 2 2 3 2 2 4 4 4 5 5 4 5 3 3 2 3 4 8 9 11 10 7
5 1 1 1 2 4 3 6 5 5 7 3 4 7 6 8 8 7 6 4 1 1 2 3 3 2 4 3 4 4 4 4 4 6 4 5 3 4 3 3 6 9 10 7
1 1 0 1 3 3 2 5 7 4 4 4 2 1 4 6 6 7 6 4 4 1 1 3 3 4 1 3 2 3 4 3 5 5 6 4 2 2 2 5 7 7 8 8
4 1 4 3 1 1 4 3 6 2 1 3 1 3 6 4 3 4 5 6 5 3 1 2 6 4 2 3 4 4 4 4 5 5 6 6 5 4 5 5 4 6 6 5
0 3 3 2 2 3 3 2 4 6 5 6 3 2 11 3 5 3 3 1 2 3 1 3 3 3 4 3 3 1 2 4 4 5 5 5 6 5 3 4 4 5 4 3
2 4 1 2 3 1 3 1 4 4 2 6 4 7 6 5 6 3 2 2 1 4 3 2 4 4 5 1 3 3 3 3 5 5 4 4 5 3 3 5 3 2 3 4
4 1 2 3 3 2 2 0 2 5 3 3 5 7 3 1 2 4 5 3 5 3 3 3 5 5 4 3 3 1 3 3 4 4 4 4 5 6 5 5 5 3 2 3
2 2 1 3 1 0 2 1 3 3 2 4 6 6 6 4 5 6 5 5 3 3 2 2 3 6 4 3 1 2 2 3 4 4 4 4 5 5 4 5 5 5 4 2
4 2 0 1 5 5 2 1 2 1 2 5 2 8 4 2 2 3 3 3 4 5 4 3 3 6 6 3 1 1 2 3 3 3 3 4 5 6 6 4 5 5 6 6
4 3 3 4 2 3 2 2 4 4 4 1 2 11 2 5 5 4 4 1 4 3 2 2 2 5 6 5 2 0 3 3 3 3 4 4 4 5 4 4 5 5 5 4
5 1 2 2 0 2 4 5 4 4 2 7 6 9 3 4 3 6 6 6 2 4 4 1 1 2 3 6 5 3 2 3 1 3 4 4 5 4 4 4 4 4 4 4
3 2 5 5 3 5 3 4 7 5 4 4 9 9 13 8 6 7 7 5 4 6 5 3 3 1 3 3 4 4 3 2 1 3 4 4 4 5 5 4 3 4 4 4
4 3 2 5 5 3 4 5 9 10 8 9 5 9 14 5 7 9 8 6 4 5 5 7 4 3 2 1 2 2 4 2 1 2 4 4 4 4 4 5 6 5 5 5
2 2 2 5 2 2 5 7 10 15 5 13 13 27 14 20 6 5 6 5 6 6 8 6 5 5 6 5 4 3 2 4 2 2 3 4 3 4 4 5 6 6 6 5
7 4 2 5 1 0 8 13 14 6 6 9 10 16 3 5 7 7 5 7 8 8 7 8 8 7 6 7 6 5 6 5 4 5 4 4 3 4 4 4 6 6 6 6
8 6 2 5 2 3 8 4 5 13 8 19 12 15 6 5 4 6 6 6 8 8 8 7 6 5 7 6 6 4 5 4 3 3 3 3 4 4 3 4 5 5 4 5
4 5 4 3 3 8 6 6 8 10 9 18 21 20 8 4 4 11 10 10 8 9 7 7 7 6 7 8 7 7 5 4 4 4 3 2 1 2 3 4 5 3 4 5
2 4 3 3 4 7 5 2 1 1 6 2 13 12 6 7 4 5 2 7 9 8 7 8 8 6 7 7 7 7 6 5 5 5 4 4 2 2 2 4 4 2 3 4
4 2 7 6 5 8 11 7 5 3 6 1 2 8 9 7 5 3 2 5 5 6 8 7 7 8 7 7 7 7 7 7 6 5 6 4 3 2 2 2 1 3 5 4
12 11 6 5 6 10 8 5 9 3 2 2 1 2 5 7 1 1 3 5 6 7 7 7 7 7 7 8 7 7 8 5 5 5 4 3 4 3 3 3 1 1 2 3
6 10 11 14 12 2 11 6 9 2 1 1 2 2 3 5 6 3 4 6 6 7 7 6 7 6 3 6 7 7 6 7 6 5 4 4 3 2 3 4 2 1 1 1
4 4 4 4 8 12 8 8 6 4 6 5 3 3 6 5 6 7 5 6 6 6 6 5 6 6 7 6 6 5 4 5 7 7 6 5 5 3 3 2 3 2 2 1
6 10 7 5 8 7 9 10 9 10 8 9 6 6 8 6 7 7 6 7 7 7 4 6 7 7 8 7 7 6 5 6 5 5 6 6 5 5 4 3 3 4 3 5
6 9 8 9 9 7 7 4 6 10 12 6 6 7 7 8 8 5 7 7 6 6 5 5 7 6 6 7 7 7 7 8 7 6 5 6 5 5 4 4 4 10 11 9
Wind_Direction
21 60 53 39 13 356 345 28 283 333 81 331 277 297 290 96 299 262 250 272 279 267 128 148 162 172 296 345 2 16 353 358 346 350 345 343 344 326 339 350 344 346 141 145
24 74 59 11 4 336 309 306 14 298 59 314 293 295 282 174 214 283 328 317 330 343 324 156 152 154 138 343 21 20 7 357 345 352 327 163 307 310 328 358 353 339 17 51
79 83 92 320 309 353 97 346 34 290 312 246 276 271 189 180 197 196 221 251 259 288 279 346 95 136 91 37 13 10 29 343 2 345 331 343 7 321 349 1 354 339 354 28
76 106 313 322 49 28 323 14 317 307 8 308 30 290 217 167 202 194 187 187 12 321 226 211 140 75 35 41 23 4 44 341 9 353 356 15 39 33 338 352 346 330 352 19
193 133 56 352 50 356 63 346 312 328 321 354 240 306 248 149 236 162 144 142 229 189 234 322 91 82 33 73 353 11 9 21 29 11 2 351 20 60 300 35 350 350 344 8
90 46 14 34 334 327 333 266 232 241 318 16 357 65 274 172 129 136 154 167 168 195 45 199 125 140 191 85 43 33 355 23 22 30 2 352 352 333 32 37 1 355 347 359
179 112 114 320 255 190 237 309 326 359 13 225 85 11 250 137 150 168 129 148 119 104 291 48 154 149 97 64 33 2 351 28 28 37 356 338 359 334 40 40 18 353 338 8
132 308 45 349 43 8 27 357 146 221 282 274 102 241 258 87 99 140 183 217 224 234 120 145 104 114 117 112 69 4 16 30 35 32 9 340 321 360 4 25 7 340 333 348
122 253 123 44 5 18 293 327 13 96 47 38 246 276 287 76 212 171 206 174 265 73 82 64 101 131 111 102 69 36 355 43 51 41 12 359 2 16 8 354 353 354 318 357
218 35 350 101 237 116 332 193 68 355 33 315 302 289 250 281 255 188 215 214 68 60 89 128 118 129 114 101 32 70 9 61 66 39 32 15 360 3 360 6 356 342 342 335
134 111 326 4 197 160 148 193 227 57 91 167 298 276 316 16 140 195 138 84 45 9 23 41 98 112 117 122 283 66 18 47 43 47 55 35 11 2 0 359 356 359 329 348
167 150 200 214 80 17 326 288 193 134 247 296 143 272 309 360 22 8 327 33 85 11 6 34 53 134 158 157 155 31 97 19 35 31 37 50 36 26 5 0 353 341 343 358
174 231 343 330 146 17 230 192 223 101 47 204 152 260 172 233 280 270 266 284 358 329 310 17 224 181 179 141 153 168 87 100 38 84 61 33 33 30 17 10 353 344 344 18
96 133 202 199 158 118 183 213 195 157 142 211 227 283 276 269 259 270 260 247 257 266 258 266 304 72 95 103 130 143 120 83 344 74 75 64 30 24 10 355 3 16 14 23
143 210 177 267 232 205 224 182 187 197 213 193 259 228 255 245 236 244 240 217 222 252 256 243 226 235 301 166 141 113 122 76 247 100 82 73 61 41 22 12 10 15 32 39
180 234 108 286 65 155 261 233 207 222 246 268 280 281 269 268 227 287 234 215 236 237 243 239 234 200 201 216 203 196 171 185 177 106 103 92 87 96 62 32 25 22 28 34
158 144 151 265 151 326 286 222 201 179 212 189 207 243 249 254 260 263 233 199 206 227 227 215 219 207 190 175 188 199 190 169 174 160 144 124 100 81 69 77 73 43 32 27
155 142 102 266 11 229 240 159 177 200 229 211 255 257 215 240 261 271 246 189 200 205 213 198 202 192 184 172 159 175 148 178 194 183 156 159 151 123 115 69 82 92 86 65
344 130 185 215 225 307 312 199 170 175 277 216 226 254 235 184 316 274 217 204 198 188 190 182 179 170 158 166 164 150 161 186 186 187 179 177 157 144 114 96 99 67 82 97
50 54 153 145 215 229 262 167 223 125 286 197 203 239 200 138 225 248 20 171 182 157 157 160 157 140 153 172 158 156 177 186 210 196 175 168 163 177 165 148 131 110 107 94
136 115 206 220 245 279 264 157 148 112 245 173 233 229 172 186 206 289 74 71 137 146 149 145 146 162 176 162 157 176 176 206 207 183 152 148 153 162 161 128 40 140 125 101
164 164 178 190 228 270 161 78 189 206 124 151 134 280 220 201 345 26 125 130 139 145 143 159 160 179 174 166 162 186 205 194 167 145 144 155 149 153 131 123 78 49 101 136
216 186 181 188 202 223 204 204 213 22 340 222 130 199 205 211 244 235 221 177 174 173 169 170 173 171 197 177 173 196 219 162 150 140 163 171 162 172 154 143 170 171 160 128
261 177 193 94 231 238 212 258 234 211 232 245 239 203 178 218 224 226 213 203 189 183 184 163 153 185 209 202 203 203 178 159 156 169 178 176 175 204 213 185 170 174 186 214
182 144 161 266 281 282 256 233 227 233 231 245 225 223 218 205 233 221 222 217 213 197 178 166 188 203 216 181 211 191 176 153 178 182 176 190 189 193 200 219 208 210 213 180
188 176 179 213 207 196 240 211 194 205 233 246 218 255 241 216 230 216 231 225 210 201 175 189 202 206 207 192 207 197 188 174 174 192 195 195 193 184 189 196 252 243 234 239